カタログに戻る

STARLINK-11503

運用中通信VLEO
NORAD 63142·PAYLOAD·🇺🇸 United States

打ち上げ Mar 3, 2025 から Cape Canaveral Space Force Station

Loading…

次のパス (今後24時間)

TLE

最新Source: CelesTrak SupGP

元期: Sep 15, 2026, 02:55 UTC

1 63142C 25043L   26258.12201389 -.00015654  00000+0 -12160-3 0  2582
2 63142  43.0005 188.4614 0001661 263.6978 310.7368 15.70842606    15

AllMySatでSTARLINK-11503をリアルタイム追跡

Download on the App Store